TimeMST,TemperatureF,Dew PointF,Humidity,Sea Level PressureIn,VisibilityMPH,Wind Direction,Wind SpeedMPH,Gust SpeedMPH,PrecipitationIn,Events,Conditions,WindDirDegrees,DateUTC
12:52 AM,43.0,23.0,45,30.12,10.0,NNW,3.5,-,N/A,,Partly Cloudy,340,2012-11-30 07:52:00
1:52 AM,41.0,23.0,49,30.12,10.0,NNE,6.9,-,N/A,,Partly Cloudy,20,2012-11-30 08:52:00
2:52 AM,41.0,24.1,51,30.13,10.0,Calm,Calm,-,N/A,,Partly Cloudy,0,2012-11-30 09:52:00
3:52 AM,36.0,21.0,55,30.14,10.0,East,5.8,-,N/A,,Scattered Clouds,90,2012-11-30 10:52:00
4:52 AM,37.0,21.9,54,30.14,10.0,Calm,Calm,-,N/A,,Scattered Clouds,0,2012-11-30 11:52:00
5:52 AM,37.0,21.9,54,30.15,10.0,Calm,Calm,-,N/A,,Scattered Clouds,0,2012-11-30 12:52:00
6:52 AM,33.1,21.0,61,30.19,10.0,Calm,Calm,-,N/A,,Mostly Cloudy,0,2012-11-30 13:52:00
7:52 AM,35.1,21.9,59,30.22,10.0,Calm,Calm,-,N/A,,Scattered Clouds,0,2012-11-30 14:52:00
8:52 AM,39.9,23.0,51,30.22,10.0,West,3.5,-,N/A,,Mostly Cloudy,280,2012-11-30 15:52:00
9:52 AM,48.0,24.1,39,30.22,10.0,Calm,Calm,-,N/A,,Mostly Cloudy,0,2012-11-30 16:52:00
10:52 AM,51.1,27.0,39,30.17,10.0,Calm,Calm,-,N/A,,Scattered Clouds,0,2012-11-30 17:52:00
11:52 AM,55.0,28.0,35,30.12,10.0,Calm,Calm,-,N/A,,Scattered Clouds,0,2012-11-30 18:52:00
12:52 PM,57.0,28.0,33,30.09,10.0,SW,5.8,-,N/A,,Scattered Clouds,220,2012-11-30 19:52:00
1:52 PM,59.0,27.0,29,30.06,10.0,SSE,3.5,-,N/A,,Scattered Clouds,160,2012-11-30 20:52:00
2:52 PM,60.1,25.0,26,30.04,10.0,Calm,Calm,-,N/A,,Scattered Clouds,0,2012-11-30 21:52:00
3:52 PM,63.0,25.0,24,30.04,10.0,Calm,Calm,-,N/A,,Scattered Clouds,0,2012-11-30 22:52:00
4:52 PM,59.0,25.0,27,30.05,10.0,Calm,Calm,-,N/A,,Scattered Clouds,0,2012-11-30 23:52:00
5:52 PM,55.0,25.0,31,30.09,10.0,West,3.5,-,N/A,,Scattered Clouds,270,2012-12-01 00:52:00
6:52 PM,48.0,23.0,37,30.12,10.0,Calm,Calm,-,N/A,,Scattered Clouds,0,2012-12-01 01:52:00
7:52 PM,46.9,24.1,41,30.12,10.0,East,3.5,-,N/A,,Scattered Clouds,100,2012-12-01 02:52:00
8:52 PM,46.9,23.0,39,30.10,10.0,Calm,Calm,-,N/A,,Mostly Cloudy,0,2012-12-01 03:52:00
9:52 PM,45.0,24.1,44,30.09,10.0,Calm,Calm,-,N/A,,Mostly Cloudy,0,2012-12-01 04:52:00
10:52 PM,39.9,21.0,47,30.11,10.0,ESE,3.5,-,N/A,,Scattered Clouds,110,2012-12-01 05:52:00
11:52 PM,42.1,21.0,43,30.09,10.0,ESE,4.6,-,N/A,,Scattered Clouds,120,2012-12-01 06:52:00